Weather in Uzhovka

Russia / Nizhny Novgorod Oblast'     54°47′38″N   44°54′14″E
temp.,
°C
wind,
m/s
gust,
m/s
humid.,
%
clouds,
%
prec.,
mm/h
press.,
hPa
HPBL,
m
6 may, thu
thu600:00+7sw41282100 0.0 1013323
03:00+7sw4138150 0.0 1013315
06:00+8sw4128244 0.0 1014350
09:00+14sw5964100 0.0 1015633
12:00+16ssw7955100 0.0 10151324
15:00+16ssw7958100 0.0 10141575
18:00+14ssw61164100 0.0 1014804
21:00+11s51371100 0.0 1014436
7 may, fri
fri700:00+10s51476100 0.0 1013369
03:00+10s51476100 0.0 1013396
06:00+10s41273100 0.0 1013503
09:00+11sw5984100 0.1 1014770
12:00+10wsw4685100 0.9 1016568
15:00+12sw2368100 1.6 1016814
18:00+13s1168100 0.1 101632
21:00+8sse229165 0.1 101833
8 may, sat
sat800:00+7s11915 0.0 101810
03:00+6se119197 0.0 101810
06:00+8e2386100 0.0 1018112
09:00+12se577392 0.0 1016666
12:00+16s6857100 0.0 10141312
15:00+19s795272 0.0 10121816
18:00+14s51379100 0.9 1012553
21:00+14sse51480100 1.0 1010492
9 may, sun
sun900:00+14s71571100 0.0 1009823
03:00+12s51393100 1.3 1009566
06:00+12sw3693100 0.1 1009398
09:00+8nnw4489100 0.3 1011369
12:00+7nw4592100 2.9 1012428
15:00+7nnw3589100 3.8 1014418
18:00+6nnw51093100 0.8 1015573
21:00+6n61193100 1.7 1016557
10 may, mon
mon1000:00+6n71294100 2.6 1016552
03:00+5nne71295100 8.1 1017525
06:00+6nne71496100 5.0 1019574
09:00+6nne71394100 6.5 1021538
12:00+9nne71088100 0.0 1022585
15:00+10nne6985100 0.0 1023585
18:00+11nne61186100 0.0 1024429
21:00+8nne51292100 0.0 1025346